Observer details:
104 San Marcello Pistoiese.  Observers P. Bacci, M. Maestripieri.  Measurers
    P. Bacci, L. Tesi, G. Fagioli.  0.60-m F4 Reflector + CCD.
595 Farra d'Isonzo.  Observer E. Pettarin.  0.61-m f/4.5 reflector + CCD.
691 Steward Observatory, Kitt Peak-Spacewatch.  Observer T. H. Bressi.  0.9-m
    f/3 reflector + CCD.
703 Catalina Sky Survey.  Observer R. A. Kowalski.  Measurers T. Beuden, V. F.
    Carvajal, D. Fay, J. B. Fazekas, D. C. Fuls, A. R. Gibbs, A. D. Grauer, H.
    Groeller, J. K. Hogan, R. A. Kowalski, S. M. Larson, G. J. Leonard, D.
    Rankin, R. L. Seaman, F. C. Shelly, K. W. Wierzchos.  0.68-m Schmidt + 10K
    CCD.
900 Moriyama.  Observer Y. Ikari.  0.26-m f/7.0 reflector + CMO.
C77 Bernezzo Observatory.  Observer A. Mantero.  0.25-m f/4.0 reflector + CCD.
C82 Osservatorio Astronomico Nastro Verde, Sorrento.  Observer N. Ruocco.
    0.35-m f/6.3  Schmidt-Cassegrain + CCD.
D63 G. Pascoli Observatory, Castelvecchio Pascoli (since June 2023).  Observer
    R. Bacci.  0.41-m f/3.75 Reflector + CCD.
G17 BAS Observatory, Scandicci.  Observer L. Grazzini.  0.20-m f/10 Schmidt-
    Cassegrain + CCD + f/6.3 focal reducer.
I52 Steward Observatory, Mt. Lemmon Station.  Observer D. Rankin.  Measurers
    T. Beuden, V. F. Carvajal, D. Fay, J. B. Fazekas, D. C. Fuls, A. R. Gibbs,
    A. D. Grauer, H. Groeller, J. K. Hogan, R. A. Kowalski, S. M. Larson, G.
    J. Leonard, D. Rankin, R. L. Seaman, F. C. Shelly, K. W. Wierzchos.  1.0-m
    prime focus + CCD.
I93 St Pardon de Conques.  Observer F. Losse.  0.40-m f/3.7 reflector + CCD.
J57 Centro Astronomico Alto Turia, Valencia.  Observer A. Fornas.  Measurers
    A. Fornas, G. Fornas, E. Arce, V. Mas.  0.43-m f/6.8 Reflector CDK + CMO.
J95 Great Shefford.  Observer P. Birtwhistle.  0.41-m f/6.3 Schmidt-Cassegrain
    + CCD.
K83 Beppe Forti Astronomical Observatory, Montelupo.  Observers M. Tombelli,
    F. Cheli, A. Squilloni, M. Iozzi.  Measurers M. Tombelli, F. Bernardi, F.
    Cheli, M. Iozzi, A. Squilloni.  0.40-m f/8 Ritchey-Chretien + CCD.
L01 Visnjan Observatory, Tican.  Observer K. Korlevic.  1.0-m f/2.9 reflector
    + CCD.
L06 Sormano 2 Observatory, Bellagio Via Lattea.  Observer G. Ventre.  Measurer
    P. Sicoli.  0.36m Schmidt Cassegrain + CCD.
L29 Drebach-South Observatory, Windhoek.  Observers G. Lehmann, A. Salewski.
    0.4-m f/3.6 reflector + CCD.
L54 Berthelot Observatory, Hunedoara.  Observers A. Sonka, A. Nedelcu.
    Measurer A. Sonka.  0.50-m f/8 reflector + CCD.
M26 Zen Observatory, Scandicci.  Observers M. Lombardo, K. Lombardo.
    Measurers M. Lombardo, L. Cavina.  0.30-m f/7.4 Ritchey-Chretien + CCD.
Q06 Tarui Observatory, Tarui.  Observer H. Watanabe.  0.35-m f/1.9 Schmidt-
    Cassegrain + CMO.
Z43 Landehen.  Observer C. Ratinaud.  0.25-m f/3.6 reflector + CCD.
Z80 Northolt Branch Observatory.  Observer G. Wells.  0.25-m f/8.0 Ritchey-
    Chretien + CCD.

Orbital elements:
2024 GZ5                                                 Earth MOID = 0.0001 AU
Epoch 2024 Mar. 31.0 TT = JDT 2460400.5                 Veres                   
M 331.63294              (2000.0)            P               Q                  
n   0.73063125     Peri.  204.81145     -0.63085208     +0.77584126             
a   1.2208732      Node    26.07892     -0.70810556     -0.57052123             
e   0.1897380      Incl.    1.27698     -0.31719421     -0.26939906             
P   1.35           H   30.30          G   0.15           U   5                  
Residuals in seconds of arc
240414 703  0.1+  0.1+    240414 C82  0.2+  0.2-    240414 Z80  0.2+  0.4+
240414 703  0.2+  0.1-    240414 C82  0.1+  0.2-    240414 J95  0.0   0.2+
240414 703  0.8+  0.5+    240414 L06  0.1-  0.2-    240414 D63  0.2+  0.1-
240414 703  0.9+  0.5+    240414 M26  0.6-  0.8+    240414 104  0.1-  0.0
240414 I52  0.2-  0.1-    240414 C82  0.3+  0.1-    240414 J95  0.2-  0.1-
240414 I52  0.1+  0.1-    240414 L06  0.4+  0.5-    240414 J95  0.3-  0.2-
240414 I52  0.0   0.0     240414 G17  0.2-  0.7+    240414 D63  0.4+  0.0
240414 I52  0.0   0.1-    240414 L06  0.6+  0.6-    240414 D63  0.1+  0.6-
240414 691  0.5-  0.4+    240414 L06  0.0   0.6-    240414 Z80  0.3-  0.1+
240414 691  0.2-  0.8+    240414 C82  0.1+  0.2-    240414 L01  0.6-  0.2+
240414 691  0.6+  0.0     240414 C82  0.0   0.1+    240414 L01  0.5-  0.3+
240414 I52  2.4-  2.3+    240414 595  0.7-  0.3+    240414 L01  0.6-  0.3+
240414 I52  0.3-  0.9+    240414 C77  1.1+  0.7-    240414 L01  0.4-  0.2+
240414 I52  0.1-  0.3+    240414 K83  0.4-  0.5+    240414 L01  0.8-  0.3+
240414 I52  0.3-  1.0+    240414 K83  0.7-  0.8+    240414 I93  0.4+  0.2-
240414 Q06  1.7-  0.9+    240414 595  0.3-  0.4-    240414 I93  0.4+  0.0
240414 Q06  1.8-  0.8-    240414 C77  1.2+  0.8-    240414 I93  0.3+  0.0
240414 Q06  1.1-  0.6-    240414 K83  0.2-  1.0+    240414 Z43  0.1+  0.2+
240414 900  0.8-  0.6+    240414 C77  0.7+  0.8-    240414 Z43  0.2+  0.1-
240414 900  0.8-  0.3+    240414 595  0.3-  0.3+    240414 Z43  0.2+  0.3+
240414 900  0.8-  0.1-    240414 G17  0.1+  0.4-    240414 L54 (4.1+  1.3-)
240414 L29  0.3+  0.2+    240414 J57  0.0   0.1-    240414 L54  0.8+  1.9-
240414 L29  0.2+  0.3-    240414 J57  0.6+  0.3-    240414 L54 (5.3+  3.2-)
240414 L29  0.2+  0.4-    240414 104  0.1-  0.1+    240414 L54  0.6+  0.6+
240414 L29  0.1-  0.1-    240414 J57  0.7+  0.8+    240414 L54  0.8-  2.4-
240414 L29  0.2+  0.8+    240414 J95  0.2-  0.4+    240414 L54 (4.0+  4.9-)
240414 M26  0.0   0.1+    240414 104  0.0   0.0

Ephemeris:
2024 GZ5                 a,e,i = 1.22, 0.19, 1                   q = 0.9892
Date    TT    R. A. (2000) Decl.     Delta      r    Elong.  Phase     V
2024 03 15    11 26 36.5 +14 21 29   0.07347 1.0663   167.4    11.8    25.5
...
2024 03 30    11 22 48.1 +15 39 11   0.03709 1.0320   153.7    25.4    24.4
...
2024 04 07    11 23 31.2 +15 46 01   0.01930 1.0171   146.4    33.0    23.1
...
2024 04 13    11 36 08.1 +14 08 27   0.0061961.0077   144.2    35.6    20.7
2024 04 14    11 47 04.5 +12 37 42   0.0039901.0063   146.3    33.5    19.7
2024 04 15    12 24 58.5 +07 03 11   0.0017581.0049   156.1    23.9    17.7
...
2024 04 21    01 05 29.6 -00 42 03   0.01191 0.9935    17.7   162.1    32.4
...
2024 04 29    01 12 27.8 +00 30 35   0.02969 0.9797    22.9   156.5    32.5
...
2024 05 14    01 21 32.6 +02 06 27   0.06546 0.9572    34.2   143.6    31.6

M. P. C. Staff               (C) Copyright 2024 MPC           M.P.E.C. 2024-G207





More information about the Iaude mailing list